• In Russia
  • List of Countries
  • For 7 days
  • Water Temperature
  • Satellite Maps
  • Weather Map
  • Weather Widgets
  • user-avatar
    Login

    Hourly Weather Eisenstadt

    Today, 28 March, Tuesday

    Time Temperature Precipitation Wind Pressure Humidity
    00:00 +4°C° 0 mm 1 mps 727 mmHg 72%
    01:00 +4°C° 0 mm 1 mps 727 mmHg 73%
    02:00 +4°C° 0 mm 1 mps 727 mmHg 72%
    03:00 +4°C° 0 mm 1 mps 727 mmHg 72%
    04:00 +4°C° 0 mm 1 mps 726 mmHg 72%
    05:00 +5°C° 0 mm 1 mps 727 mmHg 69%
    06:00 +6°C° 0 mm 1 mps 727 mmHg 66%
    07:00 +7°C° 0 mm 1 mps 727 mmHg 55%
    08:00 +9°C° 0 mm 1 mps 727 mmHg 50%
    09:00 +11°C° 0 mm 1 mps 728 mmHg 45%
    10:00 +13°C° 0 mm 1 mps 728 mmHg 40%
    11:00 +15°C° 0 mm 1 mps 728 mmHg 39%
    12:00 +16°C° 0 mm 1 mps 727 mmHg 38%
    13:00 +17°C° 0 mm 2 mps 727 mmHg 38%
    14:00 +18°C° 0 mm 1 mps 727 mmHg 40%
    15:00 +18°C° 0 mm 1 mps 727 mmHg 42%
    16:00 +18°C° 0 mm 1 mps 727 mmHg 44%
    17:00 +14°C° 0 mm 1 mps 726 mmHg 53%
    18:00 +11°C° 0 mm 1 mps 726 mmHg 63%
    19:00 +8°C° 0 mm 1 mps 726 mmHg 73%
    20:00 +8°C° 0 mm 1 mps 726 mmHg 74%
    21:00 +8°C° 0 mm 1 mps 726 mmHg 75%
    22:00 +8°C° 0 mm 1 mps 727 mmHg 76%
    23:00 +7°C° 0 mm 1 mps 727 mmHg 77%

    Tomorrow, 29 March, Wednesday

    Time Temperature Precipitation Wind Pressure Humidity
    00:00 +7°C° 0 mm 1 mps 727 mmHg 78%
    01:00 +7°C° 0 mm 1 mps 727 mmHg 78%
    02:00 +6°C° 0 mm 2 mps 727 mmHg 80%
    03:00 +6°C° 0 mm 2 mps 727 mmHg 82%
    04:00 +6°C° 0 mm 2 mps 727 mmHg 84%
    05:00 +7°C° 0 mm 2 mps 727 mmHg 82%
    06:00 +7°C° 0 mm 2 mps 728 mmHg 81%
    07:00 +8°C° 0 mm 2 mps 728 mmHg 79%
    08:00 +10°C° 0 mm 3 mps 728 mmHg 72%
    09:00 +13°C° 0 mm 3 mps 728 mmHg 65%
    10:00 +15°C° 0 mm 4 mps 729 mmHg 59%
    11:00 +17°C° 0 mm 4 mps 728 mmHg 56%
    12:00 +17°C° 0 mm 4 mps 728 mmHg 54%
    13:00 +18°C° 0 mm 4 mps 728 mmHg 52%
    14:00 +18°C° 0 mm 4 mps 728 mmHg 53%
    15:00 +18°C° 0 mm 4 mps 727 mmHg 54%
    16:00 +17°C° 0 mm 4 mps 727 mmHg 55%
    17:00 +14°C° 0 mm 4 mps 727 mmHg 63%
    18:00 +12°C° 0 mm 3 mps 727 mmHg 71%
    19:00 +10°C° 0 mm 3 mps 727 mmHg 78%
    20:00 +10°C° 0 mm 3 mps 728 mmHg 80%
    21:00 +10°C° 0 mm 3 mps 728 mmHg 81%
    22:00 +9°C° 0 mm 3 mps 728 mmHg 83%
    23:00 +9°C° 0 mm 3 mps 729 mmHg 84%

    Day after tomorrow, 30 March, Thursday

    Time Temperature Precipitation Wind Pressure Humidity
    00:00 +9°C° 0 mm 3 mps 729 mmHg 85%
    01:00 +8°C° 0 mm 3 mps 729 mmHg 86%
    02:00 +8°C° 0 mm 3 mps 729 mmHg 87%
    03:00 +8°C° 0 mm 2 mps 729 mmHg 89%
    04:00 +7°C° 0 mm 2 mps 729 mmHg 91%
    05:00 +8°C° 0 mm 2 mps 729 mmHg 88%
    06:00 +8°C° 0 mm 2 mps 729 mmHg 86%
    07:00 +9°C° 0 mm 2 mps 729 mmHg 84%
    08:00 +10°C° 0 mm 2 mps 730 mmHg 78%
    09:00 +13°C° 0 mm 2 mps 730 mmHg 71%
    10:00 +14°C° 0 mm 3 mps 730 mmHg 65%
    11:00 +15°C° 0.1 mm 2 mps 730 mmHg 63%
    12:00 +16°C° 0.1 mm 2 mps 729 mmHg 61%
    13:00 +17°C° 0.1 mm 2 mps 729 mmHg 59%
    14:00 +16°C° 0.1 mm 2 mps 729 mmHg 60%
    15:00 +16°C° 0.1 mm 2 mps 729 mmHg 61%
    16:00 +16°C° 0.1 mm 2 mps 729 mmHg 62%
    17:00 +15°C° 0 mm 2 mps 729 mmHg 69%
    18:00 +13°C° 0 mm 1 mps 729 mmHg 77%
    19:00 +11°C° 0 mm 1 mps 729 mmHg 84%
    20:00 +10°C° 0 mm 1 mps 729 mmHg 85%
    21:00 +10°C° 0 mm 1 mps 729 mmHg 87%
    22:00 +10°C° 0 mm 1 mps 729 mmHg 88%
    23:00 +9°C° 0 mm 1 mps 729 mmHg 89%

    31 March, Friday

    Time Temperature Precipitation Wind Pressure Humidity
    00:00 +9°C° 0 mm 1 mps 729 mmHg 89%
    01:00 +9°C° 0 mm 1 mps 729 mmHg 90%
    02:00 +8°C° 0 mm 1 mps 729 mmHg 91%
    03:00 +8°C° 0 mm 1 mps 728 mmHg 91%
    04:00 +8°C° 0 mm 1 mps 728 mmHg 92%
    05:00 +8°C° 0 mm 2 mps 728 mmHg 91%
    06:00 +8°C° 0 mm 2 mps 728 mmHg 90%
    07:00 +9°C° 0 mm 2 mps 728 mmHg 88%
    08:00 +10°C° 0 mm 3 mps 728 mmHg 83%
    09:00 +12°C° 0 mm 3 mps 728 mmHg 77%
    10:00 +13°C° 0 mm 4 mps 728 mmHg 72%
    11:00 +14°C° 0 mm 4 mps 728 mmHg 69%
    12:00 +15°C° 0 mm 4 mps 727 mmHg 66%
    13:00 +16°C° 0 mm 5 mps 727 mmHg 64%
    14:00 +16°C° 0 mm 5 mps 726 mmHg 64%
    15:00 +16°C° 0 mm 5 mps 726 mmHg 64%
    16:00 +16°C° 0 mm 5 mps 726 mmHg 64%
    17:00 +14°C° 0 mm 5 mps 725 mmHg 69%
    18:00 +13°C° 0 mm 4 mps 725 mmHg 74%
    19:00 +12°C° 0 mm 4 mps 725 mmHg 79%
    20:00 +11°C° 0 mm 4 mps 725 mmHg 80%
    21:00 +11°C° 0 mm 4 mps 725 mmHg 81%
    22:00 +10°C° 0 mm 4 mps 725 mmHg 82%
    23:00 +8°C° 0 mm 4 mps 725 mmHg 83%

    1 April, Saturday

    Time Temperature Precipitation Wind Pressure Humidity
    00:00 +8°C° 0 mm 4 mps 724 mmHg 84%
    01:00 +7°C° 0 mm 4 mps 724 mmHg 85%
    02:00 +8°C° 0 mm 3 mps 724 mmHg 87%
    03:00 +7°C° 0 mm 3 mps 723 mmHg 89%
    04:00 +7°C° 0 mm 3 mps 723 mmHg 91%
    05:00 +7°C° 0 mm 3 mps 723 mmHg 90%
    06:00 +7°C° 0 mm 3 mps 723 mmHg 88%
    07:00 +7°C° 0 mm 3 mps 723 mmHg 86%
    08:00 +9°C° 0 mm 3 mps 723 mmHg 80%
    09:00 +11°C° 0 mm 4 mps 723 mmHg 74%
    10:00 +13°C° 0 mm 4 mps 723 mmHg 68%
    11:00 +14°C° 0 mm 4 mps 723 mmHg 64%
    12:00 +15°C° 0 mm 4 mps 723 mmHg 60%
    13:00 +16°C° 0 mm 5 mps 723 mmHg 56%
    14:00 +16°C° 0 mm 5 mps 722 mmHg 57%
    15:00 +16°C° 0 mm 5 mps 722 mmHg 57%
    16:00 +17°C° 0 mm 5 mps 722 mmHg 58%
    17:00 +15°C° 0 mm 4 mps 722 mmHg 66%
    18:00 +13°C° 0 mm 4 mps 722 mmHg 73%
    19:00 +11°C° 0 mm 3 mps 722 mmHg 81%
    20:00 +10°C° 0 mm 3 mps 722 mmHg 83%
    21:00 +10°C° 0 mm 3 mps 722 mmHg 85%
    22:00 +9°C° 0 mm 3 mps 722 mmHg 86%
    23:00 +9°C° 0 mm 3 mps 722 mmHg 87%

    2 April, Sunday

    Time Temperature Precipitation Wind Pressure Humidity
    00:00 +8°C° 0 mm 3 mps 722 mmHg 88%
    01:00 +8°C° 0 mm 3 mps 722 mmHg 89%
    02:00 +7°C° 0 mm 3 mps 722 mmHg 88%
    03:00 +7°C° 0 mm 2 mps 722 mmHg 87%
    04:00 +7°C° 0 mm 2 mps 722 mmHg 87%
    05:00 +7°C° 0 mm 2 mps 722 mmHg 84%
    06:00 +8°C° 0 mm 2 mps 723 mmHg 81%
    07:00 +8°C° 0 mm 2 mps 723 mmHg 78%
    08:00 +10°C° 0 mm 2 mps 723 mmHg 70%
    09:00 +13°C° 0 mm 2 mps 724 mmHg 63%
    10:00 +14°C° 0 mm 3 mps 724 mmHg 55%
    11:00 +16°C° 0 mm 3 mps 724 mmHg 52%
    12:00 +17°C° 0 mm 3 mps 724 mmHg 48%
    13:00 +18°C° 0 mm 3 mps 723 mmHg 45%
    14:00 +18°C° 0 mm 3 mps 723 mmHg 46%
    15:00 +18°C° 0 mm 3 mps 723 mmHg 47%
    16:00 +18°C° 0 mm 3 mps 723 mmHg 48%
    17:00 +16°C° 0 mm 3 mps 722 mmHg 57%
    18:00 +13°C° 0 mm 3 mps 722 mmHg 66%
    19:00 +12°C° 0 mm 2 mps 722 mmHg 75%
    20:00 +10°C° 0 mm 2 mps 722 mmHg 77%
    21:00 +9°C° 0 mm 2 mps 723 mmHg 79%
    22:00 +8°C° 0 mm 2 mps 723 mmHg 82%
    23:00 +8°C° 0 mm 2 mps 723 mmHg 83%
    Show more